Location: Newark
(34.7667°N, 118.4167°W)
Time: 13:13:45
(UTC+00:00)

Hubble Space Telescope - Pass Details

Date: 27 October 2019
Orbit: 536 x 540 km, 28.5° (Epoch: 17 November)

Event Time Altitude Azimuth Distance (km) Brightness Sun altitude
Exits shadow 12:58:00 - 210° (SSW) 2,322 3.8 -15.3°
Reaches altitude 10° 13:00:06 10° 191° (S) 1,775 3.4 -14.9°
Maximum altitude 13:02:15 14° 159° (SSE) 1,541 3.4 -14.4°
Drops below altitude 10° 13:04:24 10° 127° (SE) 1,777 4.4 -14.0°
Sets 13:07:35 0° 102° (ESE) 2,668 6.3 -13.3°
